This is the latest recevied weather packets stored in our database for station/object KC0OOO-WX. If no packets are shown the sender has not sent any weather packets the latest 10 day(s).
| Time | Temp. | Humidity | Pressure | Rain* | Wind** | Luminosity | Snow |
|---|---|---|---|---|---|---|---|
| 1777886278 | 7.78° C | 67% | 1018.3 hPa | 0 mm | - | - | - |
| 1777885678 | 7.78° C | 67% | 1018.6 hPa | 0 mm | - | - | - |
| 1777885078 | 8.33° C | 67% | 1018.6 hPa | 0 mm | - | - | - |
| 1777884478 | 8.33° C | 67% | 1019 hPa | 0 mm | - | - | - |
| 1777883878 | 8.89° C | 62% | 1019 hPa | 0 mm | - | - | - |
| 1777883278 | 8.89° C | 61% | 1018.6 hPa | 0 mm | - | - | - |
| 1777882678 | 8.89° C | 56% | 1018.6 hPa | 0 mm | - | - | - |
| 1777882078 | 8.89° C | 52% | 1019.3 hPa | 0 mm | - | - | - |
| 1777881478 | 8.89° C | 52% | 1019.3 hPa | 0 mm | - | - | - |
| 1777880878 | 8.89° C | 52% | 1019.3 hPa | 0 mm | - | - | - |
| 1777880277 | 8.33° C | 51% | 1019.3 hPa | 0 mm | - | - | - |
| 1777879678 | 8.33° C | 50% | 1019 hPa | 0 mm | - | - | - |
| 1777879078 | 8.33° C | 49% | 1019 hPa | 0 mm | - | - | - |
| 1777878477 | 8.33° C | 48% | 1019 hPa | 0 mm | - | - | - |
| 1777877847 | 8.89° C | 48% | 1019 hPa | 0 mm | - | - | - |
| 1777877247 | 8.89° C | 47% | 1019.3 hPa | 0 mm | - | - | - |
| 1777876647 | 9.44° C | 45% | 1019.3 hPa | 0 mm | - | - | - |
| 1777876047 | 9.44° C | 44% | 1019 hPa | 0 mm | - | - | - |
| 1777875447 | 8.89° C | 44% | 1019 hPa | 0 mm | - | - | - |
| 1777874847 | 8.89° C | 43% | 1019 hPa | 0 mm | - | - | - |
| 1777874247 | 8.89° C | 45% | 1019 hPa | 0 mm | - | - | - |
| 1777873647 | 9.44° C | 42% | 1019.3 hPa | 0 mm | - | - | - |
| 1777873047 | 9.44° C | 44% | 1019.3 hPa | 0 mm | - | - | - |
| 1777872447 | 9.44° C | 43% | 1019 hPa | 0 mm | - | - | - |
| 1777871847 | 9.44° C | 42% | 1019 hPa | 0 mm | - | - | - |
* Rain latest hour (hover to see other rain measurements)
** Current wind speed in m/s (hover to see current wind gust speed)